GW5126 Weather Reports


time (UTC)temp
F
wind
direction
speed
knots
gust
knots
rain 1hr
in
rain 24hr
in
rain mn
in
humidity
%
barometer
mb
20260504050456 47 308 0.0 0.0 0.00 0.00 0.00 79 1014.4
20260504045953 47 308 0.0 0.0 0.00 0.00 0.00 79 1014.4
20260504045449 47 308 0.0 0.0 0.00 0.00 0.00 79 1014.6
20260504044945 47 308 0.0 0.0 0.00 0.00 0.00 79 1014.5
20260504044443 47 308 0.0 0.0 0.00 0.00 0.00 80 1014.5
20260504043940 47 308 0.0 0.9 0.00 0.00 0.00 79 1014.4
20260504043437 47 308 0.0 0.0 0.00 0.00 0.00 79 1014.5
20260504042934 47 308 0.0 0.0 0.00 0.00 0.00 78 1014.6
20260504042431 47 309 0.0 0.0 0.00 0.00 0.00 77 1014.5
20260504041927 47 308 0.0 0.0 0.00 0.00 0.00 77 1014.5
20260504041424 47 309 0.0 0.0 0.00 0.00 0.00 77 1014.7
20260504040920 47 308 0.0 0.0 0.00 0.00 0.00 76 1014.7
20260504040418 47 308 0.0 0.0 0.00 0.00 0.00 77 1014.8
20260504035913 47 308 0.0 0.0 0.00 0.00 0.00 75 1014.7
20260504035411 47 308 0.0 0.0 0.00 0.00 0.00 75 1014.5
20260504034908 47 308 0.0 0.0 0.00 0.00 0.00 74 1014.8
20260504034405 47 308 0.0 0.0 0.00 0.00 0.00 74 1014.6
20260504033902 47 308 0.0 0.0 0.00 0.00 0.00 75 1014.6
20260504033400 47 308 0.0 0.0 0.00 0.00 0.00 75 1014.7
20260504032856 47 308 0.0 0.0 0.00 0.00 0.00 75 1014.6
20260504032353 47 308 0.0 0.0 0.00 0.00 0.00 74 1014.6
20260504031850 47 308 0.0 0.0 0.00 0.00 0.00 73 1014.6
20260504031347 47 308 0.0 0.0 0.00 0.00 0.00 74 1014.6
20260504030843 47 308 0.0 0.0 0.00 0.00 0.00 72 1014.7
20260504030341 47 308 0.0 0.0 0.00 0.00 0.00 74 1014.8
20260504025837 47 308 0.0 0.9 0.00 0.00 0.00 72 1014.9
20260504025334 47 277 0.9 0.9 0.00 0.00 0.00 74 1014.7
20260504024830 47 277 0.0 0.0 0.00 0.00 0.00 72 1014.8
20260504024327 47 277 0.0 0.0 0.00 0.00 0.00 72 1014.8
20260504023824 47 267 0.0 0.9 0.00 0.00 0.00 74 1015.0
20260504023320 47 244 0.0 0.0 0.00 0.00 0.00 76 1014.8
20260504022816 47 244 0.0 0.0 0.00 0.00 0.00 75 1014.9
20260504022313 47 244 0.0 0.0 0.00 0.00 0.00 75 1014.6
20260504021809 47 244 0.0 0.0 0.00 0.00 0.00 75 1014.7
20260504021308 47 244 0.0 0.0 0.00 0.00 0.00 74 1014.9
20260504020804 47 244 0.0 0.9 0.00 0.00 0.00 72 1014.7
20260504020301 47 237 0.9 0.9 0.00 0.00 0.00 72 1014.7
20260504015757 47 237 0.0 0.9 0.00 0.00 0.00 72 1014.7
20260504015253 48 232 0.0 0.0 0.00 0.00 0.00 70 1014.6
20260504014749 48 232 0.0 0.0 0.00 0.00 0.00 70 1014.7
20260504014246 48 232 0.0 0.0 0.00 0.00 0.00 70 1014.5
20260504013743 49 231 0.0 0.0 0.00 0.00 0.00 70 1014.5
20260504013241 49 231 0.0 0.0 0.00 0.00 0.00 69 1014.6
20260504012737 49 231 0.0 0.0 0.00 0.00 0.00 68 1014.4
20260504012235 49 231 0.0 0.0 0.00 0.00 0.00 69 1014.5
20260504011732 49 231 0.0 0.0 0.00 0.00 0.00 70 1014.7
20260504011229 49 231 0.0 0.0 0.00 0.00 0.00 68 1014.7
20260504010725 50 231 0.0 0.0 0.00 0.00 0.00 68 1014.7
20260504010220 50 231 0.0 0.0 0.00 0.00 0.00 67 1014.7
20260504005717 51 231 0.0 0.0 0.00 0.00 0.00 64 1014.7
20260504005215 51 231 0.0 0.0 0.00 0.00 0.00 62 1014.6
20260504004712 51 231 0.0 0.0 0.00 0.00 0.00 60 1014.6
20260504004209 52 231 0.0 0.0 0.00 0.00 0.00 59 1014.7
20260504003706 52 231 0.0 0.0 0.00 0.00 0.00 56 1014.4
20260504003202 53 231 0.0 0.0 0.00 0.00 0.00 56 1014.5
20260504002659 53 231 0.0 0.0 0.00 0.00 0.00 55 1014.5
20260504002157 53 231 0.0 0.0 0.00 0.00 0.00 55 1014.4
20260504001654 54 231 0.0 0.0 0.00 0.00 0.00 55 1014.6
20260504001150 55 231 0.0 0.0 0.00 0.00 0.00 56 1014.5
20260504000647 55 231 0.0 0.0 0.00 0.00 0.00 53 1014.4
20260504000145 56 231 0.0 0.0 0.00 0.00 0.00 45 1014.5
20260503235643 56 231 0.0 0.0 0.00 0.00 0.00 44 1014.4
20260503235139 57 230 0.0 0.9 0.00 0.00 0.00 43 1014.4
20260503234638 57 243 0.9 0.9 0.00 0.00 0.00 43 1014.7
20260503234135 58 124 0.0 0.9 0.00 0.00 0.00 41 1014.6
20260503233632 58 192 0.9 1.7 0.00 0.00 0.00 38 1014.6
20260503233127 58 208 0.0 0.0 0.00 0.00 0.00 39 1014.8
20260503232624 59 201 0.0 0.9 0.00 0.00 0.00 39 1014.7
20260503232122 59 58 0.9 0.9 0.00 0.00 0.00 40 1014.8
20260503231620 59 273 0.9 1.7 0.00 0.00 0.00 37 1014.8
20260503231116 59 212 0.0 3.5 0.00 0.00 0.00 38 1014.8
20260503230613 59 146 0.0 1.7 0.00 0.00 0.00 37 1014.7
20260503230110 59 145 0.9 1.7 0.00 0.00 0.00 37 1014.9
20260503225608 59 313 1.7 2.6 0.00 0.00 0.00 37 1014.9
20260503225102 59 356 0.0 1.7 0.00 0.00 0.00 35 1014.9
20260503224600 60 279 1.7 5.2 0.00 0.00 0.00 36 1014.9
20260503224058 60 233 0.0 1.7 0.00 0.00 0.00 36 1015.0
20260503223556 60 214 1.7 3.5 0.00 0.00 0.00 35 1014.9
20260503223051 61 92 1.7 6.1 0.00 0.00 0.00 35 1015.0
20260503222549 61 34 1.7 1.7 0.00 0.00 0.00 35 1015.1
20260503222047 62 29 3.5 5.2 0.00 0.00 0.00 34 1015.0
20260503221545 62 287 0.9 6.1 0.00 0.00 0.00 34 1015.2
20260503221042 61 96 0.0 3.5 0.00 0.00 0.00 36 1015.1
20260503220538 62 292 1.7 7.8 0.00 0.00 0.00 32 1015.1
20260503220035 62 99 2.6 3.5 0.00 0.00 0.00 36 1015.1
20260503215532 62 328 1.7 1.7 0.00 0.00 0.00 33 1015.2
20260503215029 62 211 1.7 3.5 0.00 0.00 0.00 32 1015.2
20260503214527 62 178 1.7 2.6 0.00 0.00 0.00 33 1015.1
20260503214024 62 166 1.7 7.0 0.00 0.00 0.00 32 1014.9
20260503213522 62 187 1.7 5.2 0.00 0.00 0.00 34 1015.0
20260503213018 62 255 1.7 6.1 0.00 0.00 0.00 34 1015.1
20260503212516 62 296 2.6 7.8 0.00 0.00 0.00 32 1015.2
20260503212013 62 149 0.9 2.6 0.00 0.00 0.00 33 1015.1
20260503211510 62 144 1.7 7.8 0.00 0.00 0.00 33 1015.1
20260503211005 62 2 0.0 2.6 0.00 0.00 0.00 33 1015.1
20260503210503 61 195 1.7 5.2 0.00 0.00 0.00 34 1015.0
20260503210002 62 261 2.6 7.0 0.00 0.00 0.00 33 1015.1
20260503205459 62 117 3.5 6.1 0.00 0.00 0.00 34 1015.3
20260503204956 61 144 3.5 8.7 0.00 0.00 0.00 33 1015.0
20260503204453 61 196 3.5 7.0 0.00 0.00 0.00 33 1015.2
20260503203950 61 308 3.5 8.7 0.00 0.00 0.00 34 1015.3
20260503203448 62 175 3.5 8.7 0.00 0.00 0.00 34 1015.3
20260503202944 62 173 1.7 5.2 0.00 0.00 0.00 33 1015.2
20260503202442 62 117 2.6 3.5 0.00 0.00 0.00 37 1015.5
20260503201941 62 265 0.9 2.6 0.00 0.00 0.00 32 1015.6
20260503201437 61 305 3.5 5.2 0.00 0.00 0.00 35 1015.9
20260503200935 62 58 3.5 3.5 0.00 0.00 0.00 35 1015.8
20260503200431 62 336 5.2 7.0 0.00 0.00 0.00 36 1015.9
20260503195928 62 316 0.0 2.6 0.00 0.00 0.00 33 1016.0
20260503195425 63 222 3.5 6.1 0.00 0.00 0.00 32 1016.1
20260503194922 62 152 1.7 1.7 0.00 0.00 0.00 33 1016.2
20260503194419 62 169 3.5 7.8 0.00 0.00 0.00 33 1016.2
20260503193914 61 151 4.3 6.1 0.00 0.00 0.00 33 1016.3
20260503193410 60 351 3.5 5.2 0.00 0.00 0.00 37 1016.3
20260503192906 60 284 3.5 6.1 0.00 0.00 0.00 37 1016.6
20260503192401 62 144 2.6 5.2 0.00 0.00 0.00 35 1016.6
20260503191858 61 231 1.7 3.5 0.00 0.00 0.00 36 1016.7
20260503191355 61 281 4.3 7.0 0.00 0.00 0.00 33 1016.9
20260503190852 62 179 2.6 3.5 0.00 0.00 0.00 35 1016.7
20260503190349 60 183 2.6 7.0 0.00 0.00 0.00 36 1016.8
20260503185846 60 331 3.5 5.2 0.00 0.00 0.00 35 1016.9
20260503185342 60 186 3.5 5.2 0.00 0.00 0.00 36 1017.0
20260503184842 60 218 0.9 3.5 0.00 0.00 0.00 36 1017.2
20260503184338 60 304 1.7 5.2 0.00 0.00 0.00 38 1017.2
20260503183834 60 95 4.3 7.0 0.00 0.00 0.00 35 1017.3
20260503183332 59 277 1.7 6.1 0.00 0.00 0.00 36 1017.3
20260503182829 59 353 1.7 5.2 0.00 0.00 0.00 38 1017.5
20260503182328 60 42 0.9 3.5 0.00 0.00 0.00 40 1017.5
20260503181825 60 243 5.2 7.8 0.00 0.00 0.00 38 1017.2
20260503181322 59 126 2.6 2.6 0.00 0.00 0.00 39 1017.5
20260503180818 60 287 2.6 3.5 0.00 0.00 0.00 42 1017.6
20260503180316 58 240 1.7 3.5 0.00 0.00 0.00 44 1017.6
20260503175812 59 289 3.5 8.7 0.00 0.00 0.00 42 1017.6
20260503175311 59 64 2.6 2.6 0.00 0.00 0.00 37 1017.6
20260503174806 59 103 0.9 2.6 0.00 0.00 0.00 40 1017.9
20260503174304 58 338 3.5 7.8 0.00 0.00 0.00 39 1017.7
20260503173759 59 33 1.7 7.0 0.00 0.00 0.00 40 1018.0
20260503173255 59 207 1.7 8.7 0.00 0.00 0.00 36 1017.9
20260503172752 58 344 2.6 3.5 0.00 0.00 0.00 43 1017.9
20260503172250 58 53 1.7 7.0 0.00 0.00 0.00 37 1017.8
20260503171746 58 144 0.9 5.2 0.00 0.00 0.00 41 1018.1
20260503171243 57 62 2.6 5.2 0.00 0.00 0.00 39 1018.1
20260503170740 57 280 0.9 6.1 0.00 0.00 0.00 43 1018.3
20260503170237 58 218 1.7 5.2 0.00 0.00 0.00 44 1018.3
20260503160159 56 190 4.3 7.0 0.00 0.00 0.00 47 1019.1
20260503150629 54 181 3.5 5.2 0.00 0.00 0.00 49 1019.5
20260503150125 54 191 4.3 7.0 0.00 0.00 0.00 45 1019.5
20260503131019 45 150 0.9 2.6 0.00 0.00 0.00 79 1019.8
20260503130516 44 341 0.0 1.7 0.00 0.00 0.00 89 1019.9
20260503110412 33 138 0.9 1.7 0.00 0.00 0.00 94 1019.0
20260503090303 34 135 0.0 0.9 0.00 0.00 0.00 93 1018.2
20260503081237 33 127 0.0 0.9 0.00 0.00 0.00 92 1017.9
20260503080732 33 114 0.9 0.9 0.00 0.00 0.00 92 1018.0
20260503080229 33 116 0.9 0.9 0.00 0.00 0.00 92 1017.9
20260503072706 34 18 0.0 0.0 0.00 0.00 0.00 92 1017.6
20260503072203 34 18 0.0 0.0 0.00 0.00 0.00 91 1017.7
20260503071700 34 18 0.0 0.0 0.00 0.00 0.00 91 1017.6
20260503071156 34 17 0.0 0.0 0.00 0.00 0.00 91 1017.5
20260503070653 34 17 0.0 0.0 0.00 0.00 0.00 91 1017.7
20260503070152 34 17 0.0 0.0 0.00 0.00 0.00 91 1017.5